This is the latest recevied weather packets stored in our database for station/object DL5ARK. If no packets are shown the sender has not sent any weather packets the latest 1 day(s).
| Time | Temp. | Humidity | Pressure | Rain* | Wind** | Luminosity | Snow |
|---|---|---|---|---|---|---|---|
| 1836274689 | 8.33° C | 83% | 1014.1 hPa | 0 mm | 0 m/s | - | - |
| 1836274509 | 8.33° C | 83% | 1014.4 hPa | 0 mm | 0 m/s | - | - |
| 1836274482 | 8.33° C | 83% | 1013.8 hPa | 0 mm | 0 m/s | - | - |
| 1836274298 | 8.33° C | 83% | 1014.1 hPa | 0 mm | 0 m/s | - | - |
| 1836274148 | 8.33° C | 83% | 1014.1 hPa | 0 mm | 0 m/s | - | - |
| 1836274119 | 8.89° C | 83% | 1014.1 hPa | 0 mm | 0 m/s | - | - |
| 1836273968 | 8.33° C | 82% | 1014.4 hPa | 0 mm | 0 m/s | - | - |
| 1778005308 | 12.78° C | 78% | 994.1 hPa | 0 mm | 0.89 m/s, 337° | - | - |
| 1778005128 | 12.78° C | 78% | 994.1 hPa | 0 mm | 1.34 m/s, 315° | - | - |
| 1778004947 | 12.78° C | 78% | 993.9 hPa | 0 mm | 1.79 m/s, 315° | - | - |
| 1778004767 | 12.78° C | 78% | 993.9 hPa | 0 mm | 2.68 m/s, 315° | - | - |
| 1778004588 | 12.78° C | 78% | 993.9 hPa | 0 mm | 1.34 m/s, 315° | - | - |
| 1778004227 | 12.78° C | 78% | 993.9 hPa | 0 mm | 2.24 m/s, 337° | - | - |
| 1778004047 | 12.78° C | 77% | 993.9 hPa | 0 mm | 1.34 m/s, 337° | - | - |
| 1778003868 | 12.78° C | 77% | 993.9 hPa | 0 mm | 0.89 m/s, 315° | - | - |
| 1778003687 | 12.78° C | 78% | 993.9 hPa | 0 mm | 1.34 m/s, 135° | - | - |
| 1778003508 | 13.33° C | 79% | 993.9 hPa | 0 mm | 4.92 m/s, 180° | - | - |
| 1778003148 | 13.89° C | 78% | 993.9 hPa | 0 mm | 4.02 m/s, 202° | - | - |
| 1778002968 | 14.44° C | 77% | 993.4 hPa | 0 mm | 2.24 m/s, 157° | - | - |
| 1778002788 | 15° C | 76% | 993.4 hPa | 0 mm | 3.58 m/s, 180° | - | - |
| 1778002607 | 15° C | 73% | 993.4 hPa | 0 mm | 0.45 m/s, 337° | - | - |
| 1778002248 | 15° C | 74% | 992.4 hPa | 0 mm | 1.79 m/s, 0° | - | - |
| 1778002067 | 15° C | 74% | 992.1 hPa | 0 mm | 1.34 m/s, 22° | - | - |
| 1778001887 | 15° C | 73% | 991.9 hPa | 0 mm | 3.58 m/s, 337° | - | - |
| 1778001707 | 15.56° C | 73% | 991.9 hPa | 0 mm | 3.58 m/s, 67° | - | - |
* Rain latest hour (hover to see other rain measurements)
** Current wind speed in m/s (hover to see current wind gust speed)